Regional Weather Roundup
Issued by NWS Midland/Odessa, TX

Home | Current Version | Previous Version | Text Only | Print | Product List | Glossary On
Versions: 1 2 3 4 5 6 7 8 9 10 11 12 13 14 15 16 17 18 19 20 21 22 23 24 25 26 27 28 29 30 31 32 33 34 35 36 37 38 39 40 41 42 43 44 45 46 47 48 49 50
000
ASUS44 KMAF 031410
RWRMAF
MIDLAND AREA WEATHER ROUNDUP
NATIONAL WEATHER SERVICE MIDLAND TX
900 AM CDT MON AUG 03 2015

...IN SOUTHWEST TEXAS AND SOUTHEAST NEW MEXICO...

CITY           SKY/WX    TMP DP  RH WIND       PRES   REMARKS
ALPINE         SUNNY     75  58  56 SW3       30.15S
ANDREWS        FAIR      72  65  78 SE7       30.02S
ARTESIA        PTSUNNY   75  64  69 NW7       30.04R
BIG SPRING     CLOUDY    75  62  62 SE7       30.04R
CARLSBAD       PTSUNNY   78  63  59 NW8       30.01R
DRYDEN           N/A     81  62  52 VRB5      29.96R
FORT STOCKTON  SUNNY     79  58  48 S12       29.99R
GUAD PASS      MOSUNNY   68  61  78 SW8       30.17R
HOBBS          SUNNY     75  64  69 E6        30.05R
MARFA          SUNNY     72  57  60 CALM      30.14S
MIDLAND AIRPK  CLOUDY    78  60  52 SW5       30.03S
MIDLAND INTL   LGT RAIN  76  62  62 SW6       30.02S
ODESSA         PTSUNNY   75  63  66 SE13      30.03S
PECOS          MOSUNNY   78  59  51 CALM      29.96R
PRESIDIO       FAIR      85  57  38 MISG      29.99R
SEMINOLE       MOSUNNY   77  61  57 SE7       30.04S
SNYDER         PTSUNNY   79  64  60 S6        30.01R
WINK           PTSUNNY   78  60  53 SE10      29.97R
$$
...OTHER STATIONS IN TEXAS...

CITY           SKY/WX    TMP DP  RH WIND       PRES   REMARKS
ABILENE        PTSUNNY   81  62  52 S7        29.98R
AMARILLO       PTSUNNY   70  66  87 SE9G21    30.06R
AUSTIN         MOSUNNY   80  70  71 VRB3      29.93R
BROWNSVILLE    MOSUNNY   84  76  76 S15       29.89R
CORPUS CHRISTI MOSUNNY   83  76  79 S6        29.90R
DALLAS FTW     PTSUNNY   86  61  42 CALM      29.93R
DEL RIO          N/A     82  69  64 E8        29.92R
EL PASO        PTSUNNY   74  64  71 SW6       30.06S
HOUSTON INT    MOSUNNY   84  73  69 SW3       29.92R
LUBBOCK        PTSUNNY   74  66  76 E5        30.04R
SAN ANGELO     MOSUNNY   81  64  56 SW6       29.97R
SAN ANTONIO    SUNNY     82  72  71 VRB3      29.94R
WACO           SUNNY     83  66  56 S7        29.94R
WICHITA FALLS  NOT AVBL
$$
...OTHER LOCATIONS IN NEW MEXICO...

CITY           SKY/WX    TMP DP  RH WIND       PRES   REMARKS
ALAMAGORDO     MOSUNNY   72  63  73 S7        30.09R
ALBUQUERQUE    MOSUNNY   66  60  81 S3        30.18R
CANNON AFB     MOSUNNY   72  66  81 S6        30.06F
CLOVIS         MOSUNNY   70  64  83 S5        30.07F
HOLLOMAN AFB   MOSUNNY   73  62  68 NW3       30.06R
ROSWELL        CLOUDY    76  65  68 N7        30.03R
RUIDOSO          N/A    N/A N/A N/A MISG        N/A
SANTA FE       SUNNY     64  57  78 N9        30.22R
TRUTH OR CONSE PTSUNNY   70  60  70 NW6       30.12R
TUCUMCARI      PTSUNNY   69  66  90 W6        30.04R
$$


USA.gov is the U.S. government's official web portal to all federal, state and local government web resources and services.